Regional Weather Roundup
Issued by NWS

Home | Current Version | Previous Version | Graphics & Text | Print | Product List | Glossary On
Versions: 1 2 3 4 5 6 7 8 9 10 11 12 13 14 15 16 17 18 19 20 21 22 23 24 25 26 27 28 29 30 31 32 33 34 35 36 37 38 39 40 41 42 43 44 45 46 47 48 49 50
000
ASUS43 KBIS 231802
RWRND

NORTH DAKOTA REGIONAL WEATHER ROUNDUP
NATIONAL WEATHER SERVICE BISMARCK ND
1200 PM CST THU NOV 23 2017

NOTE: "FAIR" INDICATES FEW OR NO CLOUDS BELOW 12,000 FEET WITH NO
SIGNIFICANT WEATHER AND/OR OBSTRUCTIONS TO VISIBILITY.


NDZ001>003-009>011-017-231900-
NORTHWEST NORTH DAKOTA

CITY           SKY/WX    TMP DP  RH WIND       PRES   REMARKS
WILLISTON      CLOUDY    51  40  65 SW9       29.61F
6HR MIN TEMP:  27; 6HR MAX TEMP:  51;

MINOT          SUNNY     55  39  54 SW16      29.58F
MINOT AFB      SUNNY     55  40  58 W5        29.56F
$$

NDZ018>021-031>035-040>046-231900-
SOUTHWEST NORTH DAKOTA

CITY           SKY/WX    TMP DP  RH WIND       PRES   REMARKS
BISMARCK       CLOUDY    54  40  59 SE3       29.70F
6HR MIN TEMP:  25; 6HR MAX TEMP:  54;

DICKINSON      CLOUDY    63  39  41 W21G28    29.69F
GARRISON         N/A     46  42  86 SW3       29.64F
6HR MIN TEMP:  26; 6HR MAX TEMP:  46;

HETTINGER ARPT SUNNY     65  38  36 SW13      29.78F
$$

NDZ004>008-012>016-024-026-027-054-231900-
NORTHEAST NORTH DAKOTA

CITY           SKY/WX    TMP DP  RH WIND       PRES   REMARKS
GRAND FORKS    CLOUDY    32  30  92 S15       29.74F
GRND FRKS AFB  CLOUDY    30  29  93 S15       29.72F WCI  19
DEVILS LAKE    SUNNY     32  26  78 SE12      29.65F
$$

NDZ022-023-025-028>030-036>039-047>053-231900-
SOUTHEAST NORTH DAKOTA

CITY           SKY/WX    TMP DP  RH WIND       PRES   REMARKS
FARGO          SUNNY     36  28  73 SE16      29.77F
6HR MIN TEMP:  27; 6HR MAX TEMP:  36;

JAMESTOWN      CLOUDY    47  36  65 SW10      29.67F
$$





USA.gov is the U.S. government's official web portal to all federal, state and local government web resources and services.